Location: Capvern
(43.1036°N, 0.3160°E)
Time: 05:01:59
(UTC+00:00)

Cosmos 2344 - Pass Details

Date: 16 October 2021
Orbit: 1233 x 3009 km, 63.3° (Epoch: 02 December)

Event Time Altitude Azimuth Distance (km) Brightness Sun altitude
Rises 20:02:02 0° 323° (NW) 4,533 7.2 -31.1°
Reaches altitude 10° 20:04:39 10° 325° (NW) 3,691 6.6 -31.6°
Maximum altitude 20:13:57 77° 52° (NE) 1,923 4.2 -33.2°
Enters shadow 20:16:04 63° 116° (ESE) 2,149 4.3 -33.6°
